[[{"header":{"parameterUnit":"m.s-1","parameterCategory":1,"la1":30.2991,"la2":30.254,"lo1":-89.0895,"lo2":-89.0444,"dy":0.0017,"dx":0.0017,"nx":28,"ny":28,"refTime":"2023-10-10T03:00:00:Z","depth":0,"parameterNumber":2,"parameterNumberName":"U-component_of_WINDS"},"data":[0,0,0,0,0,0,0,0,0,0,0,0,0,0,0,0,0,0,0,0,0,0,0,0,0,0,0,0,0,0,0,0,0,0,0,0,0,0,0,0,0,0,0,0,0,0,0,0,0,0,0,0,0,0,0,0,0,0,2.3195,2.3195,0,2.3212,2.3212,2.3213,2.3173,2.3171,2.317,2.3169,2.3185,2.3186,2.3188,0,0,0,0,0,0,0,0,0,0,0,0,0,2.3121,2.3123,2.3195,2.3195,2.3195,2.3212,2.3212,2.3213,2.3173,2.3171,2.317,2.3168,2.3184,2.3186,2.3188,0,0,0,0,0,0,0,0,0,0,0,0,0,2.3148,2.3124,2.3195,2.3177,2.3176,2.3212,2.3212,2.3213,2.3173,2.3171,2.3169,2.3168,2.3184,2.3186,2.3188,2.3241,0,0,2.3196,2.3197,0,0,0,0,0,0,0,0,2.3146,2.315,2.318,2.3179,2.3177,2.3188,2.3192,2.3222,2.3174,2.3174,2.3169,2.3167,2.3187,2.3189,2.3197,2.3242,2.3243,2.3196,2.3197,2.3198,2.3199,0,0,0,0,0,0,0,2.3144,2.3149,2.3202,2.318,2.3179,2.3167,2.3169,2.3198,2.3191,2.3174,2.3171,2.3174,2.3186,2.3195,2.3197,2.3243,2.3196,2.3198,2.3199,2.32,2.3327,2.3329,0,0,0,0,0,0,2.3145,2.3148,2.3201,2.3202,2.3157,2.317,2.3172,2.3187,2.3191,2.319,2.3176,2.3172,2.3191,2.3194,2.3197,2.3256,2.3198,2.3201,2.3202,2.3325,2.3327,2.3329,0,0,0,0,0,0,2.3144,2.315,2.32,2.3174,2.318,2.3173,2.319,2.3188,2.3196,2.3192,2.319,2.3186,2.319,2.3194,2.3229,2.3256,2.3202,2.3204,2.3323,2.3326,2.3328,2.3375,0,0,0,0,0,0,2.3142,2.315,2.3172,2.3175,2.3181,2.3234,2.3192,2.319,2.3201,2.3196,2.3201,2.32,2.3189,2.3226,2.3232,2.3258,2.3206,2.332,2.3324,2.3327,2.3371,2.3379,2.3386,0,0,0,0,0,2.314,2.3185,2.3173,2.318,2.3209,2.3236,2.3239,2.3226,2.3203,2.3223,2.322,2.32,2.3252,2.323,2.3236,2.3264,2.3318,2.3323,2.3327,2.3368,2.3378,2.3386,0,0,0,0,0,0,2.3186,2.3186,2.3172,2.3221,2.3228,2.3229,2.3255,2.3238,2.3252,2.3247,2.323,2.3231,2.3269,2.327,2.3246,2.3312,2.3281,2.3287,2.331,2.3319,2.3327,2.3325,2.3208,0,0,0,0,0,2.3202,2.3225,2.3223,2.3266,2.3271,2.3262,2.3274,2.3262,2.327,2.3273,2.3272,2.3279,2.3296,2.3308,2.3325,2.3372,2.337,2.3393,2.34,2.3407,2.3411,2.3431,2.344,2.3343,2.3343,2.3343,0,0,2.3235,2.3238,2.3254,2.3275,2.328,2.3302,2.3265,2.3292,2.3307,2.3277,2.3309,2.3309,2.3315,2.3355,2.3373,2.3357,2.3437,2.3412,2.3417,2.3418,2.3436,2.3446,2.3454,2.3346,2.3346,2.3345,0,0,2.3306,2.3312,2.3346,2.3351,2.3358,2.3351,2.3359,2.3361,2.3359,2.3392,2.3368,2.3385,2.3418,2.3421,2.3427,2.3495,2.3475,2.3501,2.3539,2.3559,2.3566,2.3573,2.3593,2.3601,2.3505,2.3506,2.3506,0,2.3346,2.338,2.3365,2.3392,2.34,2.3373,2.3405,2.341,2.3422,2.3428,2.341,2.3446,2.3449,2.3487,2.3503,2.351,2.3516,2.3499,2.3567,2.3573,2.3579,2.3598,2.3606,2.3508,2.3508,2.3508,2.3508,0,2.3426,2.345,2.3476,2.3487,2.3498,2.3528,2.3515,2.3529,2.3515,2.351,2.3541,2.3542,2.3556,2.3565,2.3553,2.36,2.359,2.357,2.3538,2.3591,2.3608,2.3616,2.3512,2.3511,2.3511,2.351,0,0,2.3529,2.3528,2.3538,2.354,2.3544,2.3561,2.3587,2.3601,2.361,2.3619,2.3638,2.3663,2.3643,2.365,2.3639,2.3656,2.3704,2.3633,2.3633,2.3643,2.3751,2.3764,2.3773,2.3692,2.3693,2.3694,2.3749,0,2.3595,2.3641,2.3627,2.3672,2.3691,2.3663,2.3685,2.3689,2.3683,2.3697,2.369,2.3707,2.3682,2.3685,2.3702,2.3695,2.3725,2.3691,2.3706,2.3707,2.3703,2.3782,2.3797,2.3849,2.3756,2.3757,2.3758,0,2.3681,2.369,2.3737,2.3733,2.374,2.3761,2.3769,2.3784,2.3785,2.378,2.3785,2.3768,2.3791,2.376,2.3789,2.3766,2.3771,2.3768,2.377,2.3769,2.3734,2.378,2.3866,2.3872,2.3769,2.3769,2.3768,0,2.3745,2.377,2.38,2.3804,2.3801,2.3815,2.3814,2.3814,2.3822,2.3829,2.3832,2.3842,2.3847,2.3854,2.3839,2.3818,2.3868,2.3837,2.3861,2.3861,2.3872,2.3871,2.3956,2.388,2.388,2.388,2.3879,0,2.382,2.3849,2.3828,2.3847,2.3876,2.3859,2.3888,2.3884,2.3883,2.3898,2.3876,2.389,2.387,2.3882,2.387,2.3893,2.3896,2.389,2.3886,2.3891,2.3891,2.3892,2.3887,2.3882,2.3881,2.3881,2.388,0,2.3898,2.3886,2.3915,2.3909,2.3908,2.393,2.3924,2.3939,2.393,2.3949,2.3953,2.3939,2.3951,2.3937,2.3948,2.394,2.397,2.3963,2.3969,2.3966,2.399,2.3986,2.4077,2.4086,2.4007,2.4008,2.4008,0,2.3945,2.3966,2.3961,2.3969,2.3969,2.3983,2.399,2.3972,2.3979,2.398,2.3994,2.4004,2.401,2.403,2.402,2.4027,2.4018,2.4048,2.4019,2.4021,2.4014,2.4011,2.4011,2.4054,2.4055,2.4056,2.4057,0,2.4029,2.4021,2.4031,2.4038,2.4046,2.4051,2.4054,2.4062,2.4042,2.4051,2.4063,2.4068,2.4077,2.4086,2.409,2.4087,2.4067,2.4066,2.4071,2.4075,2.4077,2.4072,2.3983,2.4064,2.4063,2.4063,2.4062,2.4062,2.409,2.4106,2.4103,2.4114,2.4114,2.4116,2.4129,2.4121,2.413,2.4136,2.4125,2.4138,2.4134,2.4137,2.4136,2.4145,2.4131,2.414,2.4142,2.4143,2.4145,2.4077,2.4146,2.4146,2.4146,2.4145,2.4145,0,2.417,2.4166,2.4176,2.418,2.4187,2.4168,2.4169,2.4176,2.4188,2.4187,2.4193,2.4204,2.4211,2.4201,2.4206,2.4214,2.4205,2.4216,2.4213,2.4212,2.4159,2.4152,2.4223,2.4223,2.4223,2.4223,2.4223,2.4223,2.4212,2.4235,2.4226,2.4248,2.4244,2.4256,2.4258,2.4258,2.4256,2.4269,2.4275,2.4268,2.4262,2.4265,2.427,2.4266,2.4268,2.4281,2.4274,2.4224,2.4217,2.4209,2.4203,2.4282,2.4282,2.4326,2.4326,2.4326]},{"header":{"parameterUnit":"m.s-1","parameterCategory":1,"la1":30.2991,"la2":30.254,"lo1":-89.0895,"lo2":-89.0444,"dy":0.0017,"dx":0.0017,"nx":28,"ny":28,"refTime":"2023-10-10T03:00:00:Z","depth":0,"parameterNumber":3,"parameterNumberName":"V-component_of_WINDS"},"data":[0,0,0,0,0,0,0,0,0,0,0,0,0,0,0,0,0,0,0,0,0,0,0,0,0,0,0,0,0,0,0,0,0,0,0,0,0,0,0,0,0,0,0,0,0,0,0,0,0,0,0,0,0,0,0,0,0,0,1.2536,1.2536,0,1.2616,1.2617,1.2617,1.2615,1.2614,1.2613,1.2612,1.2693,1.2696,1.2699,0,0,0,0,0,0,0,0,0,0,0,0,0,1.2379,1.2382,1.2536,1.2537,1.2538,1.2615,1.2617,1.2618,1.2615,1.2614,1.2612,1.2611,1.2692,1.2696,1.27,0,0,0,0,0,0,0,0,0,0,0,0,0,1.2452,1.2383,1.2535,1.2546,1.2547,1.2615,1.2617,1.2618,1.2615,1.2614,1.2612,1.261,1.2691,1.2695,1.27,1.2763,0,0,1.2715,1.2717,0,0,0,0,0,0,0,0,1.2447,1.2457,1.2543,1.2545,1.2547,1.2604,1.2591,1.2667,1.2616,1.259,1.2612,1.261,1.2665,1.2671,1.269,1.2767,1.277,1.2715,1.2718,1.272,1.2722,0,0,0,0,0,0,0,1.2442,1.2454,1.2567,1.2544,1.2547,1.2546,1.2554,1.2605,1.2635,1.2592,1.2592,1.2601,1.2665,1.2685,1.2692,1.2771,1.2715,1.2719,1.2722,1.2724,1.2901,1.2903,0,0,0,0,0,0,1.2435,1.245,1.2565,1.257,1.2492,1.255,1.2559,1.2587,1.2635,1.264,1.2603,1.2601,1.2678,1.2686,1.2695,1.277,1.272,1.2725,1.2727,1.29,1.2902,1.2904,0,0,0,0,0,0,1.2432,1.2446,1.2561,1.251,1.2524,1.2554,1.2585,1.259,1.261,1.2643,1.2648,1.2618,1.2677,1.2688,1.2746,1.2773,1.2727,1.2731,1.2897,1.29,1.2903,1.2923,0,0,0,0,0,0,1.2428,1.2444,1.2469,1.251,1.2527,1.2612,1.2587,1.2592,1.2618,1.2617,1.2659,1.2664,1.2677,1.2738,1.275,1.2779,1.2735,1.2895,1.2899,1.2902,1.292,1.2926,1.2931,0,0,0,0,0,1.2422,1.2472,1.247,1.2484,1.2559,1.2613,1.2623,1.2637,1.262,1.2645,1.2666,1.2663,1.2768,1.2744,1.2758,1.2788,1.2893,1.2898,1.2902,1.2917,1.2924,1.2931,0,0,0,0,0,0,1.2434,1.2478,1.2476,1.2541,1.2573,1.2613,1.2644,1.2644,1.2682,1.2679,1.2694,1.2703,1.276,1.278,1.2753,1.285,1.2829,1.2836,1.2836,1.2843,1.2848,1.2842,1.2739,0,0,0,0,0,1.2444,1.2485,1.2521,1.2574,1.259,1.2615,1.2639,1.2646,1.268,1.2694,1.2719,1.2752,1.2792,1.2819,1.2858,1.2922,1.2931,1.2949,1.2955,1.2959,1.2965,1.2999,1.3008,1.2917,1.2917,1.2917,0,0,1.2465,1.2494,1.2519,1.2577,1.2603,1.2644,1.2626,1.2671,1.2702,1.2701,1.2756,1.2776,1.2813,1.2874,1.2902,1.2892,1.2992,1.2965,1.2968,1.2972,1.3004,1.3013,1.302,1.292,1.292,1.2919,0,0,1.2525,1.2551,1.2598,1.2624,1.2663,1.2679,1.269,1.2729,1.2742,1.2798,1.2798,1.2834,1.2903,1.293,1.2952,1.302,1.3017,1.3032,1.3061,1.3094,1.3101,1.3108,1.3131,1.3139,1.3038,1.3038,1.3038,0,1.2547,1.2609,1.2622,1.2667,1.2692,1.2693,1.274,1.2764,1.2814,1.2831,1.2819,1.2905,1.2931,1.2997,1.3013,1.3032,1.3044,1.3027,1.3099,1.3106,1.3112,1.3134,1.3143,1.3039,1.3039,1.3039,1.3039,0,1.2633,1.2677,1.271,1.2757,1.2786,1.2832,1.2851,1.2878,1.2883,1.2899,1.2955,1.2985,1.303,1.3046,1.3051,1.3113,1.3105,1.3096,1.3074,1.3122,1.3143,1.3151,1.3041,1.3041,1.304,1.304,0,0,1.2704,1.2757,1.2769,1.279,1.2832,1.2866,1.2911,1.2954,1.2977,1.301,1.3048,1.3106,1.3097,1.3123,1.313,1.3159,1.3209,1.3147,1.3148,1.3156,1.3277,1.3283,1.3293,1.3208,1.321,1.3211,1.3274,0,1.2768,1.2848,1.286,1.2931,1.297,1.297,1.3009,1.3039,1.3055,1.309,1.3107,1.3148,1.3134,1.3149,1.3178,1.3197,1.3234,1.3193,1.3242,1.3244,1.3233,1.3304,1.3312,1.3369,1.3282,1.3284,1.3285,0,1.2853,1.2889,1.2963,1.2998,1.3015,1.305,1.309,1.3124,1.3157,1.3166,1.3194,1.3198,1.3243,1.3219,1.3281,1.3253,1.3274,1.3286,1.3289,1.3294,1.3267,1.3311,1.3388,1.3397,1.3298,1.3297,1.3296,0,1.2896,1.2963,1.3015,1.3033,1.3076,1.31,1.3119,1.3151,1.3175,1.321,1.3226,1.3265,1.3287,1.3316,1.333,1.3312,1.3391,1.3369,1.3399,1.3399,1.3416,1.3415,1.3498,1.343,1.343,1.343,1.343,0,1.2966,1.3011,1.3035,1.3067,1.3117,1.313,1.3179,1.3197,1.3225,1.326,1.3262,1.3295,1.3312,1.3347,1.3358,1.3407,1.3417,1.3425,1.3427,1.3424,1.3423,1.3438,1.3434,1.3432,1.3432,1.3431,1.3431,0,1.3023,1.3041,1.3098,1.3133,1.3143,1.3178,1.3208,1.3239,1.3254,1.3298,1.3309,1.3333,1.3374,1.3391,1.3441,1.3449,1.3505,1.3504,1.3494,1.3494,1.3524,1.352,1.3619,1.3632,1.3556,1.3557,1.3557,0,1.3066,1.3101,1.3139,1.3163,1.3182,1.3221,1.3245,1.3259,1.3285,1.3324,1.335,1.3391,1.3424,1.3489,1.3511,1.3549,1.3549,1.3581,1.3555,1.355,1.3548,1.3546,1.3549,1.3585,1.3586,1.3587,1.3587,0,1.3141,1.3147,1.3183,1.3222,1.3251,1.3282,1.3313,1.3332,1.335,1.3378,1.342,1.3446,1.3497,1.3537,1.3576,1.3594,1.3594,1.3595,1.3604,1.3602,1.3594,1.3597,1.3506,1.3593,1.3592,1.3592,1.3592,1.3591,1.3192,1.3222,1.3253,1.3293,1.3316,1.3344,1.3374,1.3393,1.3428,1.3471,1.3476,1.3521,1.3551,1.3603,1.3623,1.3658,1.3649,1.3663,1.3666,1.3669,1.367,1.3588,1.3665,1.3665,1.3664,1.3664,1.3664,0,1.3266,1.3285,1.3321,1.3363,1.3394,1.339,1.3423,1.3448,1.3488,1.3516,1.3549,1.3596,1.3634,1.3658,1.3697,1.3719,1.372,1.3729,1.3727,1.3731,1.3676,1.3664,1.3728,1.3728,1.3728,1.3728,1.3728,1.3728,1.3308,1.3358,1.3368,1.3429,1.3449,1.3492,1.3511,1.3536,1.3559,1.3611,1.3643,1.3659,1.3685,1.3725,1.3759,1.3765,1.3779,1.3789,1.3794,1.3742,1.3735,1.3729,1.3718,1.3792,1.3792,1.3846,1.3847,1.3847]}]]